QPF
0.00 0.00 0.00 0.00 0.00 0.00 0.00 0.00 0.00 0.00 0.00 0.00 0.00 0.00 0.00 0.00 0.00 0.00 0.00 0.00 0.00 0.00 0.00 0.00 0.00 0.00 0.00 0.00 0.00 0.00 0.00 0.00 0.00 0.00 0.00 0.00 0.00 0.00 0.00 0.00 0.00 0.00 0.01 0.02
0.00 0.00 0.00 0.00 0.00 0.00 0.00 0.00 0.00 0.00 0.00 0.00 0.00 0.00 0.00 0.00 0.00 0.00 0.00 0.00 0.00 0.00 0.00 0.00 0.00 0.00 0.00 0.00 0.00 0.00 0.00 0.00 0.00 0.00 0.00 0.00 0.00 0.00 0.00 0.00 0.00 0.00 0.01 0.00
0.00 0.00 0.00 0.00 0.00 0.00 0.00 0.00 0.00 0.00 0.00 0.00 0.00 0.00 0.00 0.00 0.00 0.00 0.00 0.00 0.00 0.00 0.00 0.00 0.00 0.00 0.00 0.00 0.00 0.00 0.00 0.00 0.00 0.00 0.00 0.00 0.00 0.00 0.00 0.00 0.00 0.00 0.00 0.00
0.00 0.00 0.00 0.00 0.00 0.00 0.00 0.00 0.00 0.00 0.00 0.00 0.00 0.00 0.00 0.00 0.00 0.00 0.00 0.00 0.00 0.00 0.00 0.00 0.00 0.00 0.00 0.00 0.00 0.00 0.00 0.00 0.00 0.00 0.00 0.00 0.00 0.00 0.00 0.00 0.00 0.00 0.00 0.00
0.00 0.00 0.00 0.00 0.00 0.00 0.00 0.00 0.00 0.00 0.00 0.00 0.00 0.00 0.00 0.00 0.00 0.00 0.00 0.00 0.00 0.00 0.00 0.00 0.00 0.00 0.00 0.00 0.00 0.00 0.00 0.00 0.00 0.00 0.00 0.00 0.00 0.00 0.00 0.00 0.00 0.00 0.00 0.00
0.00 0.00 0.00 0.00 0.00 0.00 0.00 0.00 0.00 0.00 0.00 0.00 0.00 0.00 0.00 0.00 0.00 0.00 0.00 0.00 0.00 0.00 0.00 0.00 0.00 0.00 0.00 0.00 0.00 0.00 0.00 0.00 0.00 0.00 0.00 0.00 0.00 0.00 0.00 0.00 0.00 0.00 0.00 0.00
0.00 0.00 0.00 0.00 0.00 0.00 0.00 0.00 0.00 0.00 0.00 0.00 0.00 0.00 0.00 0.00 0.00 0.00 0.00 0.00 0.00 0.00 0.00 0.00 0.00 0.00 0.00 0.00 0.00 0.00 0.00 0.00 0.00 0.00 0.00 0.00 0.00 0.00 0.00 0.00 0.00 0.00 0.00 0.00
0.00 0.00 0.00 0.00 0.00 0.00 0.00 0.00 0.00 0.00 0.00 0.00 0.00 0.00 0.00 0.00 0.00 0.00 0.00 0.00 0.00 0.00 0.00 0.00 0.00 0.00 0.00 0.00 0.00 0.00 0.00 0.00 0.00 0.00 0.00 0.00 0.00 0.00 0.00 0.00 0.00 0.00 0.00 0.00
0.00 0.00 0.00 0.00 0.00 0.00 0.00 0.00 0.00 0.00 0.00 0.00 0.00 0.00 0.00 0.00 0.00 0.00 0.00 0.00 0.00 0.00 0.00 0.00 0.00 0.00 0.00 0.00 0.00 0.00 0.00 0.00 0.00 0.00 0.00 0.00 0.00 0.00 0.00 0.00 0.00 0.00 0.00 0.00
0.00 0.00 0.00 0.00 0.00 0.00 0.00 0.00 0.00 0.00 0.00 0.00 0.00 0.00 0.00 0.00 0.00 0.00 0.00 0.00 0.00 0.00 0.00 0.00 0.00 0.00 0.00 0.00 0.00 0.00 0.00 0.00 0.00 0.00 0.00 0.00 0.00 0.00 0.00 0.00 0.00 0.00 0.00 0.00
0.00 0.00 0.00 0.00 0.00 0.00 0.00 0.00 0.00 0.00 0.00 0.00 0.00 0.00 0.00 0.00 0.00 0.00 0.00 0.00 0.00 0.00 0.00 0.00 0.00 0.00 0.00 0.00 0.00 0.00 0.00 0.00 0.00 0.00 0.00 0.00 0.00 0.00 0.00 0.00 0.00 0.00 0.00 0.00
0.00 0.00 0.00 0.00 0.00 0.00 0.00 0.00 0.00 0.00 0.00 0.00 0.00 0.00 0.00 0.00 0.00 0.00 0.00 0.00 0.00 0.00 0.00 0.00 0.00 0.00 0.00 0.00 0.00 0.00 0.00 0.00 0.00 0.00 0.00 0.00 0.00 0.00 0.00 0.00 0.00 0.00 0.00 0.00
0.01 0.03 0.02 0.03 0.03 0.01 0.00 0.00 0.00 0.00 0.00 0.00 0.00 0.00 0.00 0.00 0.00 0.00 0.00 0.00 0.00 0.00 0.00 0.00 0.00 0.00 0.00 0.00 0.00 0.00 0.00 0.00 0.00 0.00 0.00 0.00 0.00 0.00 0.00 0.00 0.00 0.00 0.00 0.00
0.04 0.03 0.00 0.01 0.00 0.00 0.00 0.00 0.00 0.00 0.00 0.00 0.00 0.00 0.00 0.00 0.00 0.00 0.00 0.00 0.00 0.00 0.00 0.00 0.00 0.00 0.00 0.00 0.00 0.00 0.00 0.00 0.00 0.00 0.00 0.00 0.00 0.00 0.00 0.00 0.00 0.00 0.00 0.00
0.04 0.03 0.01 0.01 0.00 0.00 0.00 0.00 0.00 0.00 0.00 0.00 0.00 0.00 0.00 0.00 0.00 0.00 0.00 0.00 0.00 0.00 0.00 0.00 0.00 0.00 0.00 0.00 0.00 0.00 0.00 0.00 0.00 0.00 0.00 0.00 0.00 0.00 0.00 0.00 0.00 0.00 0.00 0.00
0.01 0.00 0.00 0.00 0.00 0.00 0.00 0.00 0.00 0.00 0.00 0.00 0.00 0.00 0.00 0.00 0.00 0.00 0.00 0.00 0.00 0.00 0.00 0.00 0.00 0.00 0.00 0.00 0.00 0.00 0.00 0.00 0.00 0.00 0.00 0.00 0.00 0.00 0.00 0.00 0.00 0.00 0.00 0.00
0.01 0.00 0.00 0.00 0.00 0.00 0.00 0.00 0.00 0.00 0.00 0.00 0.00 0.00 0.00 0.00 0.00 0.00 0.00 0.00 0.00 0.00 0.00 0.00 0.00 0.00 0.00 0.00 0.00 0.00 0.00 0.00 0.00 0.00 0.00 0.00 0.00 0.00 0.00 0.00 0.00 0.00 0.01 0.01
0.00 0.01 0.00 0.00 0.00 0.00 0.00 0.00 0.00 0.00 0.00 0.00 0.00 0.00 0.00 0.00 0.00 0.00 0.00 0.00 0.00 0.00 0.00 0.00 0.00 0.00 0.00 0.00 0.00 0.00 0.00 0.00 0.00 0.00 0.00 0.00 0.00 0.00 0.02 0.04 0.04 0.02 0.01 0.01
0.00 0.00 0.01 0.00 0.00 0.00 0.00 0.00 0.00 0.00 0.00 0.00 0.00 0.00 0.00 0.00 0.00 0.00 0.00 0.00 0.00 0.00 0.00 0.00 0.00 0.00 0.00 0.00 0.00 0.00 0.00 0.00 0.00 0.00 0.00 0.00 0.01 0.02 0.03 0.02 0.02 0.01 0.00 0.00
0.00 0.00 0.00 0.00 0.00 0.00 0.00 0.00 0.00 0.00 0.00 0.00 0.00 0.00 0.00 0.00 0.00 0.00 0.00 0.00 0.00 0.00 0.00 0.00 0.00 0.00 0.00 0.00 0.00 0.00 0.00 0.00 0.00 0.00 0.01 0.02 0.02 0.03 0.02 0.02 0.01 0.01 0.00 0.00
0.00 0.01 0.01 0.01 0.01 0.00 0.00 0.00 0.00 0.00 0.00 0.00 0.00 0.00 0.00 0.00 0.00 0.00 0.00 0.00 0.00 0.00 0.00 0.00 0.00 0.00 0.00 0.00 0.00 0.00 0.00 0.00 0.01 0.03 0.03 0.03 0.03 0.02 0.02 0.01 0.00 0.00 0.00 0.00
0.00 0.00 0.00 0.00 0.01 0.00 0.00 0.00 0.00 0.00 0.00 0.00 0.00 0.00 0.00 0.00 0.00 0.00 0.00 0.00 0.00 0.00 0.00 0.00 0.00 0.00 0.00 0.00 0.00 0.00 0.01 0.03 0.05 0.05 0.05 0.04 0.02 0.01 0.01 0.01 0.00 0.00 0.00 0.00
0.00 0.00 0.00 0.00 0.00 0.00 0.00 0.00 0.00 0.00 0.00 0.00 0.00 0.00 0.00 0.00 0.00 0.00 0.00 0.00 0.00 0.00 0.00 0.00 0.00 0.00 0.00 0.01 0.01 0.03 0.05 0.07 0.07 0.05 0.03 0.01 0.01 0.01 0.00 0.00 0.00 0.00 0.00 0.00
0.00 0.00 0.00 0.00 0.00 0.00 0.00 0.00 0.00 0.00 0.00 0.00 0.00 0.00 0.00 0.00 0.00 0.00 0.00 0.00 0.00 0.00 0.00 0.00 0.00 0.01 0.02 0.03 0.05 0.06 0.06 0.06 0.05 0.03 0.01 0.01 0.01 0.00 0.00 0.00 0.00 0.00 0.00 0.00
0.00 0.00 0.00 0.00 0.00 0.00 0.00 0.00 0.00 0.00 0.00 0.00 0.00 0.00 0.00 0.00 0.00 0.00 0.00 0.00 0.00 0.00 0.00 0.00 0.00 0.01 0.03 0.05 0.07 0.09 0.09 0.08 0.06 0.04 0.02 0.01 0.00 0.00 0.00 0.00 0.00 0.00 0.00 0.00
0.00 0.00 0.00 0.00 0.00 0.00 0.00 0.00 0.00 0.00 0.00 0.00 0.00 0.00 0.00 0.00 0.00 0.00 0.00 0.00 0.00 0.00 0.00 0.01 0.02 0.03 0.05 0.08 0.09 0.08 0.06 0.03 0.01 0.00 0.00 0.00 0.00 0.00 0.00 0.00 0.00 0.00 0.00 0.00
MSLP
1018.33 1018.79 1018.88 1018.86 1018.86 1018.52 1018.82 1018.97 1018.93 1018.60 1018.43 1018.66 1018.84 1018.62 1018.38 1017.66 1017.62 1017.47 1017.36 1017.20 1017.32 1017.51 1018.40 1018.76 1019.09 1019.37 1019.46 1019.62 1019.66 1019.70 1019.55 1019.40 1019.02 1018.58 1018.23 1017.76 1017.78 1018.05 1018.27 1018.24 1018.33 1018.33 1018.58 1018.72
1019.07 1018.99 1018.98 1018.96 1018.95 1018.86 1018.85 1018.94 1018.90 1018.77 1018.74 1018.99 1019.05 1018.38 1017.89 1017.12 1016.48 1016.27 1016.53 1016.79 1017.12 1017.99 1018.91 1019.59 1019.80 1020.00 1020.18 1020.42 1020.51 1020.45 1020.26 1019.95 1019.60 1019.16 1018.56 1018.13 1018.18 1018.55 1018.72 1018.89 1019.13 1019.48 1019.68 1019.82
1018.80 1018.51 1018.43 1018.81 1018.84 1018.93 1018.96 1019.03 1019.09 1019.41 1019.36 1019.33 1019.53 1018.62 1017.18 1015.74 1015.38 1015.65 1015.94 1016.31 1016.80 1017.97 1019.27 1020.08 1020.56 1020.95 1021.00 1021.26 1021.40 1021.23 1020.88 1020.51 1020.10 1019.36 1018.59 1018.27 1018.33 1018.76 1019.17 1019.61 1020.01 1020.45 1020.54 1020.72
1018.94 1018.18 1018.40 1018.65 1018.79 1018.90 1019.20 1019.08 1019.31 1019.74 1020.33 1020.60 1020.18 1019.62 1017.39 1016.05 1015.57 1015.37 1015.87 1016.97 1017.99 1018.80 1020.05 1020.59 1020.91 1021.43 1021.88 1022.13 1021.95 1021.76 1021.51 1021.26 1020.89 1020.20 1019.49 1019.12 1019.32 1019.73 1020.42 1020.63 1020.95 1021.11 1021.24 1021.45
1018.46 1018.18 1018.23 1018.56 1018.76 1019.00 1019.35 1019.17 1019.57 1020.22 1020.95 1021.33 1020.77 1020.71 1017.37 1016.18 1015.78 1015.89 1016.57 1017.73 1018.72 1019.45 1020.25 1021.09 1021.53 1022.15 1022.52 1022.70 1022.66 1022.42 1022.08 1021.93 1021.76 1021.37 1020.96 1020.79 1020.89 1021.10 1021.37 1021.52 1021.58 1021.82 1022.11 1022.31
1018.76 1018.61 1018.19 1018.27 1018.76 1019.04 1019.39 1019.87 1020.35 1020.93 1021.76 1022.07 1020.53 1019.98 1018.07 1016.46 1015.46 1015.97 1017.32 1018.21 1019.05 1020.08 1020.72 1021.47 1022.19 1022.64 1022.99 1023.06 1023.09 1022.87 1022.70 1022.72 1022.55 1022.29 1022.16 1022.04 1022.07 1022.18 1022.19 1022.41 1022.44 1022.74 1022.92 1022.97
1019.04 1018.97 1018.75 1018.39 1018.98 1019.26 1019.71 1020.62 1021.70 1022.42 1022.83 1021.48 1020.14 1020.13 1017.74 1016.16 1015.57 1015.84 1017.15 1018.53 1019.48 1020.40 1021.07 1021.89 1022.68 1023.10 1023.35 1023.56 1023.57 1023.45 1023.26 1023.33 1023.23 1023.12 1023.11 1023.09 1023.07 1023.12 1023.20 1023.30 1023.35 1023.43 1023.48 1023.54
1018.59 1019.29 1018.88 1018.61 1018.63 1019.05 1019.76 1020.53 1021.23 1021.73 1022.48 1021.76 1020.53 1019.09 1016.65 1015.80 1015.67 1015.70 1016.85 1018.24 1019.60 1020.43 1021.17 1022.09 1022.64 1023.10 1023.45 1023.85 1023.77 1023.68 1023.74 1023.80 1023.75 1023.76 1023.90 1023.83 1023.79 1023.82 1023.93 1023.99 1024.02 1024.03 1024.01 1024.09
1017.91 1018.49 1018.57 1018.59 1018.43 1018.91 1019.87 1020.24 1020.76 1021.60 1022.60 1022.25 1020.20 1018.56 1016.76 1016.00 1016.74 1016.82 1017.67 1018.96 1019.98 1020.71 1021.38 1022.14 1022.60 1023.05 1023.65 1024.13 1024.04 1023.92 1024.01 1024.22 1024.26 1024.28 1024.36 1024.40 1024.37 1024.43 1024.63 1024.70 1024.68 1024.60 1024.55 1024.30
1017.15 1018.53 1018.94 1018.92 1018.76 1018.97 1019.35 1020.05 1020.92 1021.81 1022.57 1022.07 1020.29 1018.82 1017.44 1016.86 1016.70 1017.49 1018.48 1019.35 1020.17 1020.90 1021.55 1022.19 1022.61 1023.07 1023.68 1024.11 1024.17 1024.16 1024.24 1024.43 1024.53 1024.64 1024.68 1024.82 1024.90 1024.96 1025.06 1025.09 1025.16 1025.10 1025.00 1024.87
1017.09 1017.79 1019.41 1019.05 1018.78 1018.66 1019.43 1019.74 1020.34 1020.80 1021.40 1021.25 1020.60 1018.87 1017.42 1017.07 1016.85 1017.54 1018.34 1019.09 1019.75 1020.63 1021.17 1021.71 1022.22 1022.61 1023.20 1023.68 1024.19 1024.47 1024.62 1024.80 1024.82 1024.82 1024.96 1025.04 1025.19 1025.29 1025.39 1025.52 1025.64 1025.55 1025.40 1025.32
1017.10 1017.64 1019.04 1019.05 1019.12 1018.79 1019.00 1019.46 1019.94 1020.57 1021.13 1020.97 1020.24 1018.60 1016.99 1016.83 1016.87 1017.11 1017.92 1018.49 1019.39 1019.91 1020.47 1021.18 1021.79 1022.29 1023.01 1023.54 1023.90 1024.28 1024.65 1024.87 1024.98 1025.10 1025.21 1025.37 1025.52 1025.67 1025.85 1025.94 1025.92 1025.85 1025.72 1025.63
1016.89 1018.12 1019.19 1019.81 1020.13 1019.68 1019.24 1019.23 1019.58 1020.07 1020.43 1020.32 1020.35 1018.80 1017.33 1016.93 1017.03 1017.35 1017.91 1018.55 1019.41 1020.02 1020.44 1020.98 1021.79 1022.27 1022.72 1023.27 1023.71 1024.11 1024.50 1024.88 1025.12 1025.35 1025.55 1025.78 1025.94 1026.08 1026.20 1026.24 1026.24 1026.11 1025.99 1026.01
1016.98 1018.33 1018.51 1018.62 1018.67 1018.69 1019.18 1019.10 1019.35 1019.93 1020.20 1020.05 1019.23 1018.91 1017.70 1017.12 1017.45 1017.57 1018.00 1018.54 1019.02 1019.18 1019.42 1020.24 1021.04 1021.43 1022.00 1022.72 1023.33 1023.79 1024.23 1024.57 1024.94 1025.38 1025.77 1026.02 1026.29 1026.47 1026.55 1026.55 1026.59 1026.39 1026.10 1026.42
1017.77 1018.36 1018.97 1019.06 1018.93 1018.91 1019.02 1019.14 1019.25 1019.36 1019.56 1019.54 1019.37 1018.76 1018.26 1017.71 1017.60 1017.70 1017.63 1017.76 1018.05 1018.46 1018.98 1019.45 1019.94 1020.64 1021.32 1022.17 1022.86 1023.49 1024.02 1024.51 1024.93 1025.44 1025.88 1026.26 1026.58 1026.72 1026.84 1026.79 1026.60 1026.51 1026.42 1026.59
1017.65 1018.48 1019.34 1020.06 1019.97 1019.79 1019.67 1019.40 1019.29 1019.22 1019.09 1018.97 1018.77 1018.11 1017.80 1017.24 1017.44 1017.36 1017.34 1017.43 1017.60 1017.88 1018.22 1018.50 1019.04 1019.73 1020.52 1021.28 1022.30 1023.27 1023.99 1024.62 1025.13 1025.71 1026.13 1026.43 1026.70 1026.83 1026.91 1026.91 1026.86 1026.90 1026.89 1027.02
1018.11 1019.22 1020.80 1021.66 1021.13 1020.86 1020.57 1019.60 1019.05 1018.56 1018.14 1018.31 1017.99 1017.35 1017.21 1016.92 1016.72 1016.94 1017.13 1017.21 1017.37 1017.41 1017.45 1017.87 1018.19 1018.66 1019.49 1020.50 1021.61 1022.91 1023.90 1024.78 1025.54 1026.07 1026.57 1026.72 1026.88 1026.97 1027.17 1027.30 1027.15 1027.14 1027.43 1027.57
1018.49 1019.89 1021.38 1022.90 1023.02 1021.76 1019.35 1018.01 1017.57 1017.84 1017.57 1017.42 1017.28 1016.84 1016.33 1016.52 1016.49 1016.62 1017.09 1017.46 1017.59 1017.73 1017.82 1017.82 1017.91 1018.59 1019.50 1020.60 1021.82 1022.89 1023.85 1024.79 1025.62 1026.29 1026.70 1027.08 1027.15 1027.38 1027.60 1027.68 1027.60 1027.46 1027.67 1028.08
1018.71 1020.23 1022.32 1023.60 1023.62 1021.20 1019.25 1018.20 1017.65 1017.40 1016.80 1016.89 1016.54 1016.10 1016.22 1016.40 1016.67 1016.91 1017.23 1017.92 1018.56 1018.84 1018.79 1018.54 1018.34 1019.19 1020.39 1021.38 1022.27 1023.24 1024.23 1024.99 1025.77 1026.40 1026.85 1027.24 1027.37 1027.62 1027.77 1027.84 1027.94 1027.87 1027.98 1028.18
1019.80 1020.20 1021.81 1023.90 1023.36 1021.39 1018.55 1017.01 1016.66 1017.04 1015.58 1016.04 1015.85 1016.12 1016.39 1016.75 1017.26 1017.27 1017.93 1018.75 1019.53 1019.88 1020.15 1020.34 1020.49 1020.79 1021.43 1022.49 1023.07 1023.93 1024.82 1025.45 1026.11 1026.71 1027.09 1027.46 1027.61 1027.75 1027.99 1028.07 1028.27 1028.29 1028.36 1028.50
1020.85 1021.24 1021.76 1022.49 1022.17 1019.84 1017.83 1016.63 1016.64 1017.30 1014.68 1015.04 1015.44 1015.91 1016.40 1016.97 1017.00 1017.19 1018.25 1019.48 1020.23 1020.74 1021.10 1021.65 1021.94 1022.28 1022.63 1023.08 1023.68 1024.53 1025.31 1025.97 1026.58 1027.08 1027.49 1027.67 1027.85 1028.19 1028.36 1028.50 1028.45 1028.61 1028.84 1029.08
1020.11 1020.98 1021.41 1021.72 1021.25 1018.64 1016.11 1016.54 1016.18 1014.69 1014.53 1015.05 1015.47 1015.81 1016.47 1016.55 1016.98 1017.77 1018.79 1019.83 1020.63 1021.20 1021.90 1022.25 1022.47 1023.11 1023.47 1023.75 1024.18 1025.11 1025.88 1026.61 1027.08 1027.44 1027.94 1027.94 1028.17 1028.50 1028.83 1028.99 1029.04 1029.00 1029.11 1029.73
1019.28 1018.48 1019.19 1019.05 1017.45 1015.93 1015.59 1015.10 1014.66 1014.71 1015.06 1015.28 1015.50 1015.69 1016.12 1016.67 1017.12 1017.78 1018.72 1019.89 1020.83 1021.62 1022.46 1022.97 1023.26 1023.76 1024.15 1024.43 1024.78 1025.47 1026.06 1026.88 1027.26 1027.56 1028.20 1028.52 1028.52 1028.59 1029.04 1029.28 1029.56 1029.57 1029.67 1030.10
1018.06 1017.48 1017.85 1017.75 1015.73 1015.31 1015.44 1015.16 1015.04 1014.96 1015.13 1015.07 1015.34 1015.73 1016.30 1016.91 1017.38 1018.01 1018.85 1020.05 1021.19 1022.04 1022.74 1023.34 1023.91 1024.48 1024.83 1025.11 1025.40 1025.81 1026.42 1027.12 1027.70 1027.93 1028.39 1029.05 1029.16 1028.96 1029.24 1029.71 1029.87 1030.05 1030.32 1030.69
1017.06 1017.10 1016.63 1016.12 1014.97 1014.97 1014.62 1014.62 1014.77 1015.03 1015.03 1015.24 1015.61 1016.08 1016.50 1017.13 1017.62 1018.26 1018.97 1019.97 1021.04 1022.01 1022.80 1023.47 1023.94 1024.63 1025.24 1025.66 1026.18 1026.52 1026.84 1026.98 1027.81 1028.27 1028.80 1029.31 1029.65 1029.59 1029.86 1030.20 1030.23 1030.33 1030.54 1030.48
1015.41 1015.01 1015.45 1014.62 1014.01 1014.24 1013.83 1013.96 1014.33 1015.17 1015.36 1015.27 1015.97 1016.44 1016.78 1017.22 1017.68 1018.14 1019.03 1019.95 1020.95 1021.93 1022.66 1023.34 1023.95 1024.70 1025.48 1026.06 1026.59 1026.85 1027.24 1027.68 1027.97 1028.48 1029.18 1029.60 1029.89 1030.15 1030.45 1030.68 1030.66 1030.19 1030.21 1030.31
Thickness
5591 5586 5585 5594 5602 5612 5613 5613 5614 5625 5636 5638 5637 5640 5645 5659 5662 5664 5666 5669 5673 5675 5665 5667 5666 5661 5659 5658 5658 5656 5656 5655 5655 5656 5656 5657 5654 5649 5646 5643 5640 5638 5634 5629
5576 5574 5588 5594 5598 5601 5607 5605 5609 5622 5625 5629 5627 5638 5648 5656 5666 5671 5671 5670 5670 5664 5658 5655 5652 5649 5646 5643 5641 5640 5640 5641 5642 5643 5645 5646 5641 5636 5632 5628 5624 5619 5615 5610
5569 5582 5590 5589 5592 5591 5595 5594 5599 5602 5613 5622 5618 5621 5643 5662 5668 5669 5669 5671 5667 5658 5649 5641 5636 5632 5630 5627 5625 5624 5625 5626 5627 5630 5634 5634 5630 5624 5619 5614 5608 5602 5598 5593
5564 5579 5580 5580 5582 5586 5579 5594 5596 5596 5591 5586 5607 5589 5631 5653 5658 5662 5662 5651 5645 5643 5633 5629 5624 5618 5615 5611 5610 5610 5610 5609 5610 5613 5616 5617 5613 5607 5598 5595 5590 5585 5581 5576
5560 5569 5573 5570 5576 5578 5575 5589 5586 5587 5581 5581 5592 5581 5617 5637 5644 5648 5644 5636 5630 5627 5620 5614 5609 5604 5598 5595 5593 5593 5593 5593 5592 5593 5594 5592 5589 5584 5580 5577 5574 5568 5562 5558
5549 5557 5567 5569 5571 5572 5575 5573 5575 5575 5565 5535 5583 5584 5597 5624 5640 5642 5630 5624 5620 5610 5605 5600 5592 5586 5582 5579 5576 5576 5577 5575 5575 5575 5573 5571 5569 5566 5563 5559 5556 5550 5545 5542
5538 5544 5552 5561 5557 5562 5563 5554 5539 5542 5541 5560 5587 5579 5597 5623 5635 5632 5625 5612 5603 5597 5592 5585 5576 5571 5568 5563 5561 5562 5562 5559 5559 5557 5554 5552 5550 5547 5544 5541 5538 5534 5531 5527
5527 5524 5539 5551 5554 5551 5548 5548 5530 5533 5542 5557 5570 5577 5603 5619 5617 5621 5617 5605 5593 5586 5579 5571 5564 5558 5555 5550 5549 5549 5547 5545 5543 5541 5537 5535 5533 5531 5527 5524 5521 5518 5515 5511
5523 5529 5536 5543 5550 5548 5540 5540 5552 5539 5503 5530 5552 5580 5602 5609 5595 5595 5590 5583 5575 5570 5565 5557 5552 5547 5541 5536 5536 5536 5534 5531 5528 5525 5522 5520 5518 5515 5510 5507 5504 5501 5498 5495
5527 5508 5521 5528 5537 5539 5538 5542 5527 5507 5500 5515 5547 5566 5571 5585 5589 5581 5572 5566 5562 5557 5551 5545 5540 5535 5530 5527 5525 5523 5521 5517 5514 5511 5509 5506 5503 5499 5496 5493 5489 5486 5483 5480
5518 5515 5501 5516 5521 5531 5527 5527 5534 5534 5516 5524 5522 5550 5573 5572 5576 5572 5566 5562 5552 5546 5542 5538 5533 5530 5524 5518 5512 5509 5507 5503 5501 5499 5496 5493 5489 5486 5482 5478 5474 5471 5468 5465
5510 5507 5490 5507 5510 5521 5524 5522 5524 5498 5514 5507 5517 5528 5564 5565 5563 5562 5556 5553 5540 5537 5534 5531 5527 5521 5513 5508 5505 5500 5495 5491 5489 5486 5483 5479 5475 5471 5466 5462 5459 5456 5453 5450
5502 5483 5466 5473 5481 5496 5506 5516 5520 5520 5514 5518 5509 5523 5550 5552 5552 5550 5540 5535 5528 5525 5522 5518 5512 5506 5501 5497 5492 5487 5482 5478 5475 5471 5467 5463 5459 5454 5450 5446 5442 5440 5439 5436
5493 5474 5486 5497 5499 5502 5496 5509 5510 5508 5478 5514 5520 5519 5535 5539 5537 5532 5528 5529 5518 5520 5522 5511 5502 5499 5495 5486 5479 5475 5472 5469 5463 5457 5452 5447 5442 5437 5433 5430 5427 5427 5426 5421
5479 5466 5482 5491 5494 5497 5498 5499 5498 5495 5500 5499 5507 5506 5518 5524 5521 5518 5519 5521 5519 5516 5509 5504 5503 5493 5487 5479 5472 5465 5459 5456 5450 5443 5437 5431 5425 5422 5419 5416 5414 5412 5411 5406
5478 5462 5475 5453 5478 5482 5480 5483 5486 5487 5492 5490 5493 5502 5514 5518 5507 5508 5514 5515 5516 5508 5503 5501 5496 5489 5483 5476 5465 5455 5447 5441 5435 5428 5422 5417 5412 5408 5405 5402 5400 5397 5394 5389
5469 5448 5423 5416 5453 5450 5429 5451 5475 5484 5489 5490 5485 5506 5504 5505 5506 5502 5498 5499 5498 5502 5504 5496 5493 5487 5478 5467 5458 5446 5436 5428 5418 5411 5405 5401 5397 5394 5390 5387 5385 5382 5377 5373
5454 5445 5426 5388 5394 5391 5465 5475 5485 5478 5486 5486 5487 5495 5502 5497 5492 5489 5487 5486 5495 5491 5490 5489 5484 5475 5464 5453 5443 5432 5422 5412 5403 5395 5390 5384 5382 5378 5373 5370 5368 5367 5362 5356
5451 5434 5404 5414 5347 5429 5460 5468 5467 5466 5477 5473 5483 5494 5487 5478 5473 5483 5477 5465 5462 5458 5459 5464 5465 5453 5442 5433 5424 5413 5402 5395 5387 5379 5374 5370 5367 5363 5360 5358 5353 5351 5346 5342
5441 5440 5418 5365 5376 5384 5459 5470 5469 5465 5468 5485 5480 5474 5467 5465 5460 5472 5453 5443 5433 5427 5428 5429 5428 5425 5418 5408 5401 5392 5383 5375 5369 5363 5359 5355 5352 5349 5345 5342 5338 5334 5331 5326
5403 5396 5403 5380 5381 5403 5447 5452 5452 5418 5487 5470 5470 5462 5459 5460 5461 5453 5430 5422 5415 5410 5407 5402 5399 5396 5391 5386 5379 5370 5362 5356 5349 5346 5342 5341 5338 5333 5330 5326 5323 5318 5313 5308
5409 5405 5388 5392 5391 5401 5454 5438 5439 5461 5463 5459 5448 5444 5438 5435 5436 5423 5415 5405 5399 5392 5386 5382 5379 5372 5366 5364 5359 5350 5344 5336 5333 5331 5325 5326 5323 5319 5314 5310 5306 5303 5300 5291
5399 5414 5396 5409 5418 5439 5431 5437 5436 5438 5436 5440 5441 5435 5426 5423 5421 5412 5403 5389 5380 5373 5364 5358 5355 5350 5345 5342 5340 5334 5329 5322 5319 5319 5312 5309 5308 5307 5300 5295 5289 5285 5281 5273
5398 5393 5394 5392 5425 5430 5423 5422 5424 5423 5420 5420 5415 5413 5405 5404 5399 5394 5382 5370 5360 5352 5344 5338 5333 5330 5328 5326 5324 5319 5315 5311 5306 5303 5299 5294 5293 5292 5287 5279 5275 5268 5263 5256
5397 5386 5393 5382 5412 5405 5417 5414 5411 5404 5400 5400 5393 5388 5385 5378 5378 5374 5367 5358 5347 5336 5329 5324 5322 5319 5314 5312 5308 5306 5303 5301 5296 5291 5286 5282 5278 5276 5271 5264 5260 5255 5249 5243
5397 5408 5393 5399 5405 5405 5418 5414 5390 5382 5381 5381 5373 5363 5360 5364 5362 5358 5349 5342 5333 5324 5320 5318 5314 5310 5304 5301 5297 5296 5294 5291 5289 5285 5278 5273 5268 5263 5258 5252 5245 5241 5236 5228